This is the latest recevied weather packets stored in our database for station/object N4HAC. If no packets are shown the sender has not sent any weather packets the latest 1 day(s).
| Time | Temp. | Humidity | Pressure | Rain* | Wind** | Luminosity | Snow |
|---|---|---|---|---|---|---|---|
| 1778019801 | 26.11° C | 32% | 1003.7 hPa | 0 mm | 8.49 m/s, 147° | 114 W/m² | - |
| 1778019498 | 26.11° C | 32% | 1003.8 hPa | 0 mm | 6.71 m/s, 142° | 120 W/m² | - |
| 1778019195 | 26.11° C | 34% | 1003.8 hPa | 0 mm | 4.92 m/s, 137° | 78 W/m² | - |
| 1778018892 | 26.67° C | 33% | 1003.9 hPa | 0 mm | 4.92 m/s, 147° | 119 W/m² | - |
| 1778018589 | 26.67° C | 31% | 1003.7 hPa | 0 mm | 4.92 m/s, 153° | 148 W/m² | - |
| 1778018287 | 26.67° C | 31% | 1003.9 hPa | 0 mm | 7.6 m/s, 157° | 159 W/m² | - |
| 1778017984 | 26.67° C | 32% | 1003.9 hPa | 0 mm | 3.58 m/s, 148° | 173 W/m² | - |
| 1778017682 | 26.67° C | 34% | 1003.7 hPa | 0 mm | 1.79 m/s, 95° | 209 W/m² | - |
| 1778017379 | 26.67° C | 32% | 1003.7 hPa | 0 mm | 7.6 m/s, 143° | 187 W/m² | - |
| 1778017076 | 26.67° C | 34% | 1003.6 hPa | 0 mm | 4.92 m/s, 140° | 239 W/m² | - |
| 1778016774 | 26.67° C | 31% | 1003.7 hPa | 0 mm | 7.15 m/s, 149° | 189 W/m² | - |
| 1778016469 | 26.11° C | 30% | 1003.8 hPa | 0 mm | 8.05 m/s, 139° | 173 W/m² | - |
| 1778016167 | 26.11° C | 30% | 1003.7 hPa | 0 mm | 7.6 m/s, 155° | 160 W/m² | - |
| 1778015864 | 26.67° C | 32% | 1003.5 hPa | 0 mm | 4.47 m/s, 154° | 154 W/m² | - |
| 1778015561 | 26.67° C | 31% | 1003.7 hPa | 0 mm | 6.71 m/s, 140° | 151 W/m² | - |
| 1778015257 | 26.67° C | 32% | 1003.4 hPa | 0 mm | 7.15 m/s, 144° | 165 W/m² | - |
| 1778014954 | 27.22° C | 30% | 1003.3 hPa | 0 mm | 6.26 m/s, 170° | 247 W/m² | - |
| 1778014652 | 27.22° C | 31% | 1003.5 hPa | 0 mm | 8.49 m/s, 151° | 304 W/m² | - |
| 1778014350 | 26.67° C | 32% | 1003.4 hPa | 0 mm | 4.92 m/s, 173° | 208 W/m² | - |
| 1778014046 | 27.22° C | 32% | 1003.5 hPa | 0 mm | 4.92 m/s, 145° | 275 W/m² | - |
| 1778013744 | 27.22° C | 32% | 1003.5 hPa | 0 mm | 8.05 m/s, 142° | 356 W/m² | - |
| 1778013441 | 26.67° C | 32% | 1003.5 hPa | 0 mm | 6.71 m/s, 149° | 259 W/m² | - |
| 1778013138 | 27.22° C | 30% | 1003.7 hPa | 0 mm | 4.92 m/s, 121° | 331 W/m² | - |
| 1778012833 | 27.22° C | 33% | 1003.6 hPa | 0 mm | 4.02 m/s, 135° | 266 W/m² | - |
| 1778012530 | 27.22° C | 33% | 1003.8 hPa | 0 mm | 5.36 m/s, 146° | 361 W/m² | - |
* Rain latest hour (hover to see other rain measurements)
** Current wind speed in m/s (hover to see current wind gust speed)